Location: Six Mile Lake
(44.9000°N, 79.7170°W)
Time: 05:23:03
(UTC-04:00)

EO-79 - Pass Details

Date: 01 July 2022
Orbit: 588 x 603 km, 98.0° (Epoch: 14 August)

Event Time Altitude Azimuth Distance (km) Brightness Sun altitude
Rises 03:23:43 0° 9° (N) 2,855 ? -16.6°
Reaches altitude 10° 03:25:55 10° 6° (N) 1,950 ? -16.4°
Maximum altitude 03:30:04 58° 287° (WNW) 702 ? -16.1°
Enters shadow 03:32:02 29° 219° (SW) 1,108 ? -15.9°
